Location: Newark
(44.2003°N, 3.2583°E)
Time: 08:10:58
(UTC+00:00)

Explorer 7 - Pass Details

Date: 24 October 2019
Orbit: 485 x 680 km, 50.3° (Epoch: 18 November)

Event Time Altitude Azimuth Distance (km) Brightness Sun altitude
Rises 13:39:48 0° 295° (WNW) 2,552 10.4 26.9°
Reaches altitude 10° 13:42:02 10° 303° (WNW) 1,677 9.4 26.6°
Maximum altitude 13:45:38 42° 16° (NNE) 724 7.3 26.2°
Drops below altitude 10° 13:49:21 10° 88° (E) 1,730 9.1 25.8°
Sets 13:51:41 0° 95° (E) 2,643 10.0 25.6°
